Regional Weather Roundup
Issued by NWS

Home | Current Version | Previous Version | Text Only | Print | Product List | Glossary On
Versions: 1 2 3 4 5 6 7 8 9 10 11 12 13 14 15 16 17 18 19 20 21 22 23 24 25 26 27 28
000
ASUS45 KSLC 191510
RWRUT

UTAH REGIONAL WEATHER ROUNDUP
NATIONAL WEATHER SERVICE SALT LAKE CITY UT
900 AM MDT SAT APR 19 2014

UTZ001>011-023>025-191600-

NORTHERN UTAH

CITY           SKY/WX    TMP DP  RH WIND       PRES   REMARKS
HILL AFB       CLOUDY    51  36  57 SE13      30.03R
LOGAN          CLOUDY    43  35  73 NE3       30.05R
OGDEN          CLOUDY    53  37  54 S8        30.02R
PROVO AIRPORT  MOSUNNY   52  37  58 CALM      30.04S
SALT LAKE CITY MOSUNNY   52  42  69 CALM      30.01S
VERNAL         MOSUNNY   55  37  50 CALM      30.04R
WENDOVER       MOSUNNY   52  30  43 E5        30.03R
HEBER CITY     MOSUNNY   46  32  57 CALM      30.06S
WEST JORDAN    MOSUNNY   54  45  71 S7        30.03R

$$

UTZ012>022-026-027-191600-

SOUTHERN UTAH

CITY           SKY/WX    TMP DP  RH WIND       PRES   REMARKS
BRYCE CANYON   MOSUNNY   43  30  60 W3        30.16S
CEDAR CITY     SUNNY     54  30  40 N5        30.07S
MILFORD        SUNNY     56  30  37 S14       30.05R
MOAB/CYNLANDS  CLOUDY    55  47  74 E3        30.07R
PRICE          PTSUNNY   55  37  50 E8        30.09R
ST GEORGE      MOSUNNY   59  34  38 SE5       30.03R

$$

REGIONAL REPORTS     COLORADO/ARIZONA

CITY           SKY/WX    TMP DP  RH WIND       PRES   REMARKS
CRAIG, CO      CLOUDY    46  34  62 E6        30.10R
GRAND JUNCTION LGT RAIN  50  46  86 N10       30.10R FOG
RIFLE          CLOUDY    54  39  57 CALM      30.10R
MONTROSE       LGT RAIN  51  42  71 N9        30.14R
CORTEZ         CLOUDY    48  46  93 E3        30.15R
PAGE, AZ       PTSUNNY   60  40  47 CALM      30.06R
GRAND CANYON   SUNNY     51  38  60 E5        30.13R
KINGMAN        SUNNY     58  46  64 NW5       30.01R
FLAGSTAFF      MOSUNNY   45  39  79 VRB3      30.14R

$$

REGIONAL REPORTS    NEVADA/IDAHO/WYOMING

CITY           SKY/WX    TMP DP  RH WIND       PRES   REMARKS
LAS VEGAS, NV  MOSUNNY   68  41  37 CALM      29.93R
ELY            SUNNY     47  27  45 E6        30.08R
ELKO           MOSUNNY   43  26  51 E5        30.05R
POCATELLO, ID  SUNNY     46  20  35 NE3       30.04S
BURLEY         SUNNY     41  32  70 CALM      30.01S
EVANSTON, WY   CLOUDY    40  32  73 CALM      30.09S
ROCK SPRINGS   MOSUNNY   47  25  42 CALM      30.09R

$$



USA.gov is the U.S. government's official web portal to all federal, state and local government web resources and services.